When you browse on this site, cookies collect data to enhance your experience and personalize the content and advertising you see.
Visit our Privacy Policy to learn more. By continuing to use the site, you agree to this use of cookies and data.
  • In Czech Republic
  • List of Countries
  • For 7 days
  • Water Temperature
  • Weather Map
  • Weather Widgets
  • user-avatar
    Login

    Hourly Weather Escaldes-Engordany

    Today, 23 October, Wednesday

    Time Temperature Precipitation Wind Pressure Humidity
    00:00 +11°C° 3.4 mm 1 mps 632 mmHg 98%
    01:00 +9°C° 13 mm 2 mps 632 mmHg 98%
    02:00 +8°C° 13 mm 2 mps 631 mmHg 97%
    03:00 +7°C° 13 mm 3 mps 630 mmHg 97%
    04:00 +8°C° 3.8 mm 2 mps 630 mmHg 97%
    05:00 +9°C° 3.8 mm 2 mps 630 mmHg 98%
    06:00 +9°C° 3.8 mm 2 mps 631 mmHg 98%
    07:00 +9°C° 1 mm 2 mps 631 mmHg 97%
    08:00 +9°C° 1 mm 2 mps 631 mmHg 97%
    09:00 +9°C° 1 mm 2 mps 632 mmHg 96%
    10:00 +10°C° 0.2 mm 2 mps 632 mmHg 89%
    11:00 +10°C° 0.2 mm 2 mps 632 mmHg 81%
    12:00 +12°C° 0.2 mm 2 mps 632 mmHg 74%
    13:00 +10°C° 0.1 mm 2 mps 632 mmHg 73%
    14:00 +10°C° 0.1 mm 2 mps 631 mmHg 73%
    15:00 +10°C° 0.1 mm 3 mps 631 mmHg 72%
    16:00 +8°C° 0.1 mm 2 mps 631 mmHg 79%
    17:00 +7°C° 0.1 mm 2 mps 631 mmHg 87%
    18:00 +5°C° 0.1 mm 2 mps 630 mmHg 94%
    19:00 +5°C° 0 mm 2 mps 631 mmHg 94%
    20:00 +5°C° 0 mm 2 mps 631 mmHg 94%
    21:00 +5°C° 0 mm 2 mps 632 mmHg 94%
    22:00 +5°C° 0 mm 1 mps 632 mmHg 93%
    23:00 +5°C° 0 mm 1 mps 632 mmHg 93%

    Tomorrow, 24 October, Thursday

    Time Temperature Precipitation Wind Pressure Humidity
    00:00 +5°C° 0 mm 1 mps 632 mmHg 93%
    01:00 +4°C° 0 mm 1 mps 632 mmHg 92%
    02:00 +4°C° 0 mm 1 mps 632 mmHg 92%
    03:00 +3°C° 0 mm 1 mps 632 mmHg 91%
    04:00 +3°C° 0 mm 1 mps 633 mmHg 90%
    05:00 +3°C° 0 mm 1 mps 633 mmHg 88%
    06:00 +3°C° 0 mm 1 mps 633 mmHg 87%
    07:00 +5°C° 0 mm 1 mps 634 mmHg 81%
    08:00 +6°C° 0 mm 0 mps 635 mmHg 75%
    09:00 +8°C° 0 mm 0 mps 637 mmHg 69%
    10:00 +8°C° 0 mm 0 mps 637 mmHg 67%
    11:00 +10°C° 0 mm 1 mps 638 mmHg 64%
    12:00 +11°C° 0 mm 1 mps 638 mmHg 61%
    13:00 +11°C° 0 mm 1 mps 638 mmHg 63%
    14:00 +11°C° 0 mm 1 mps 638 mmHg 64%
    15:00 +11°C° 0 mm 1 mps 638 mmHg 66%
    16:00 +9°C° 0 mm 1 mps 638 mmHg 74%
    17:00 +8°C° 0 mm 1 mps 638 mmHg 82%
    18:00 +5°C° 0 mm 2 mps 638 mmHg 90%
    19:00 +5°C° 0.1 mm 2 mps 638 mmHg 90%
    20:00 +5°C° 0.1 mm 2 mps 639 mmHg 90%
    21:00 +6°C° 0.1 mm 1 mps 640 mmHg 91%
    22:00 +5°C° 0 mm 2 mps 639 mmHg 90%
    23:00 +4°C° 0 mm 2 mps 639 mmHg 90%

    Day after tomorrow, 25 October, Friday

    Time Temperature Precipitation Wind Pressure Humidity
    00:00 +4°C° 0 mm 2 mps 639 mmHg 90%
    01:00 +4°C° 0 mm 2 mps 639 mmHg 90%
    02:00 +4°C° 0 mm 2 mps 639 mmHg 90%
    03:00 +4°C° 0 mm 2 mps 639 mmHg 90%
    04:00 +4°C° 0 mm 2 mps 640 mmHg 86%
    05:00 +4°C° 0 mm 2 mps 640 mmHg 83%
    06:00 +4°C° 0 mm 2 mps 640 mmHg 80%
    07:00 +6°C° 0 mm 2 mps 641 mmHg 72%
    08:00 +9°C° 0 mm 2 mps 642 mmHg 64%
    09:00 +12°C° 0 mm 1 mps 642 mmHg 56%
    10:00 +13°C° 0 mm 1 mps 643 mmHg 52%
    11:00 +14°C° 0 mm 1 mps 643 mmHg 49%
    12:00 +16°C° 0 mm 1 mps 643 mmHg 46%
    13:00 +15°C° 0 mm 1 mps 643 mmHg 49%
    14:00 +15°C° 0 mm 1 mps 642 mmHg 53%
    15:00 +15°C° 0 mm 1 mps 642 mmHg 56%
    16:00 +13°C° 0 mm 1 mps 641 mmHg 62%
    17:00 +11°C° 0 mm 1 mps 640 mmHg 69%
    18:00 +9°C° 0 mm 1 mps 640 mmHg 75%
    19:00 +9°C° 0 mm 1 mps 640 mmHg 70%
    20:00 +9°C° 0 mm 1 mps 640 mmHg 65%
    21:00 +7°C° 0 mm 2 mps 640 mmHg 59%
    22:00 +7°C° 0 mm 2 mps 640 mmHg 58%
    23:00 +7°C° 0 mm 2 mps 640 mmHg 57%

    26 October, Saturday

    Time Temperature Precipitation Wind Pressure Humidity
    00:00 +7°C° 0 mm 2 mps 640 mmHg 55%
    01:00 +7°C° 0 mm 2 mps 640 mmHg 54%
    02:00 +7°C° 0 mm 2 mps 640 mmHg 53%
    03:00 +7°C° 0 mm 2 mps 639 mmHg 52%
    04:00 +7°C° 0 mm 2 mps 639 mmHg 50%
    05:00 +8°C° 0 mm 1 mps 639 mmHg 47%
    06:00 +8°C° 0 mm 1 mps 639 mmHg 45%
    07:00 +10°C° 0 mm 1 mps 640 mmHg 44%
    08:00 +11°C° 0 mm 0 mps 642 mmHg 43%
    09:00 +14°C° 0 mm 0 mps 643 mmHg 43%
    10:00 +15°C° 0 mm 0 mps 643 mmHg 42%
    11:00 +16°C° 0 mm 1 mps 643 mmHg 41%
    12:00 +18°C° 0 mm 1 mps 643 mmHg 40%
    13:00 +18°C° 0 mm 1 mps 643 mmHg 44%
    14:00 +18°C° 0 mm 1 mps 642 mmHg 48%
    15:00 +16°C° 0 mm 1 mps 642 mmHg 52%
    16:00 +14°C° 0 mm 1 mps 641 mmHg 60%
    17:00 +12°C° 0 mm 1 mps 641 mmHg 67%
    18:00 +9°C° 0 mm 1 mps 640 mmHg 75%
    19:00 +9°C° 0 mm 1 mps 640 mmHg 73%
    20:00 +9°C° 0 mm 1 mps 640 mmHg 71%
    21:00 +9°C° 0 mm 1 mps 640 mmHg 69%
    22:00 +9°C° 0 mm 1 mps 640 mmHg 66%
    23:00 +9°C° 0 mm 1 mps 640 mmHg 63%

    27 October, Sunday

    Time Temperature Precipitation Wind Pressure Humidity
    00:00 +9°C° 0 mm 1 mps 640 mmHg 61%
    01:00 +9°C° 0 mm 1 mps 640 mmHg 60%
    02:00 +9°C° 0 mm 1 mps 640 mmHg 58%
    03:00 +9°C° 0 mm 1 mps 640 mmHg 57%
    04:00 +9°C° 0 mm 1 mps 640 mmHg 55%
    05:00 +9°C° 0 mm 1 mps 640 mmHg 53%
    06:00 +9°C° 0 mm 1 mps 640 mmHg 51%
    07:00 +11°C° 0 mm 1 mps 641 mmHg 49%
    08:00 +13°C° 0 mm 1 mps 642 mmHg 46%
    09:00 +14°C° 0 mm 0 mps 643 mmHg 44%
    10:00 +15°C° 0 mm 0 mps 643 mmHg 41%
    11:00 +18°C° 0 mm 1 mps 643 mmHg 39%
    12:00 +20°C° 0 mm 1 mps 643 mmHg 36%
    13:00 +19°C° 0 mm 1 mps 643 mmHg 41%
    14:00 +18°C° 0 mm 1 mps 642 mmHg 46%
    15:00 +18°C° 0 mm 1 mps 642 mmHg 51%
    16:00 +15°C° 0 mm 1 mps 641 mmHg 58%
    17:00 +13°C° 0 mm 1 mps 640 mmHg 65%
    18:00 +10°C° 0 mm 1 mps 640 mmHg 71%
    19:00 +10°C° 0 mm 1 mps 640 mmHg 68%
    20:00 +10°C° 0 mm 1 mps 640 mmHg 64%
    21:00 +10°C° 0 mm 1 mps 640 mmHg 60%
    22:00 +10°C° 0 mm 1 mps 640 mmHg 56%
    23:00 +10°C° 0 mm 1 mps 640 mmHg 52%

    28 October, Monday

    Time Temperature Precipitation Wind Pressure Humidity
    00:00 +10°C° 0 mm 1 mps 639 mmHg 48%
    01:00 +10°C° 0 mm 1 mps 639 mmHg 46%
    02:00 +10°C° 0 mm 1 mps 639 mmHg 44%
    03:00 +9°C° 0 mm 1 mps 639 mmHg 42%
    04:00 +9°C° 0 mm 1 mps 639 mmHg 41%
    05:00 +10°C° 0 mm 1 mps 639 mmHg 40%
    06:00 +10°C° 0 mm 1 mps 639 mmHg 39%
    07:00 +12°C° 0 mm 1 mps 639 mmHg 40%
    08:00 +14°C° 0 mm 1 mps 640 mmHg 40%
    09:00 +15°C° 0 mm 0 mps 641 mmHg 40%
    10:00 +18°C° 0 mm 1 mps 641 mmHg 39%
    11:00 +19°C° 0 mm 1 mps 642 mmHg 37%
    12:00 +20°C° 0 mm 1 mps 642 mmHg 36%
    13:00 +19°C° 0 mm 1 mps 641 mmHg 41%
    14:00 +19°C° 0 mm 1 mps 641 mmHg 46%
    15:00 +18°C° 0 mm 1 mps 640 mmHg 51%
    16:00 +15°C° 0 mm 1 mps 640 mmHg 57%
    17:00 +13°C° 0 mm 1 mps 639 mmHg 63%
    18:00 +11°C° 0 mm 1 mps 638 mmHg 69%
    19:00 +11°C° 0 mm 1 mps 639 mmHg 66%
    20:00 +11°C° 0 mm 1 mps 639 mmHg 63%
    21:00 +11°C° 0 mm 1 mps 639 mmHg 60%
    22:00 +11°C° 0 mm 1 mps 639 mmHg 58%
    23:00 +11°C° 0 mm 1 mps 638 mmHg 57%

    29 October, Tuesday

    Time Temperature Precipitation Wind Pressure Humidity
    00:00 +10°C° 0 mm 1 mps 638 mmHg 56%
    01:00 +10°C° 0 mm 1 mps 638 mmHg 54%
    02:00 +10°C° 0 mm 1 mps 638 mmHg 53%
    03:00 +10°C° 0 mm 1 mps 638 mmHg 52%
    04:00 +10°C° 0 mm 1 mps 638 mmHg 51%
    05:00 +10°C° 0 mm 1 mps 638 mmHg 50%
    06:00 +11°C° 0 mm 1 mps 638 mmHg 49%
    07:00 +12°C° 0 mm 1 mps 639 mmHg 50%
    08:00 +13°C° 0 mm 1 mps 639 mmHg 51%
    09:00 +14°C° 0 mm 1 mps 640 mmHg 53%
    10:00 +15°C° 0 mm 1 mps 640 mmHg 50%
    11:00 +16°C° 0 mm 1 mps 641 mmHg 47%
    12:00 +18°C° 0 mm 1 mps 641 mmHg 44%
    13:00 +18°C° 0 mm 1 mps 641 mmHg 47%
    14:00 +16°C° 0 mm 1 mps 641 mmHg 50%
    15:00 +16°C° 0 mm 1 mps 640 mmHg 53%
    16:00 +14°C° 0 mm 1 mps 640 mmHg 59%
    17:00 +13°C° 0 mm 1 mps 640 mmHg 65%
    18:00 +11°C° 0 mm 1 mps 640 mmHg 71%
    19:00 +11°C° 0 mm 1 mps 640 mmHg 68%
    20:00 +11°C° 0 mm 1 mps 640 mmHg 65%
    21:00 +12°C° 0 mm 1 mps 641 mmHg 61%
    22:00 +11°C° 0 mm 1 mps 640 mmHg 59%
    23:00 +11°C° 0 mm 1 mps 640 mmHg 58%
    Show more